Location: Caicarita
(10.0502°N, 67.6875°W)
Time: 01:03:11
(UTC+00:00)

Cosmos 2228 - Pass Details

Date: 05 August 2024
Orbit: 575 x 602 km, 82.5° (Epoch: 09 September)

Event Time Altitude Azimuth Distance (km) Brightness Sun altitude
Rises 23:21:29 0° 20° (NNE) 2,787 6.4 -7.7°
Reaches altitude 10° 23:24:10 10° 38° (NE) 1,894 5.4 -8.3°
Maximum altitude 23:27:11 19° 84° (E) 1,397 4.3 -9.0°
Enters shadow 23:29:58 11° 128° (SE) 1,839 4.9 -9.6°
